1495702800.77,6095,14.81,73702.3,6.85,0.75,1.13,0,*7D
1495702802.03,6096,14.75,73698.0,6.87,0.91,1.21,0,*77
1495702803.23,6097,14.81,73698.0,6.85,1.01,1.37,0,*4B
1495702804.46,6098,14.81,73700.5,6.87,0.25,0.37,0,*40
1495702805.67,6099,14.81,73698.0,6.89,0.63,0.79,0,*47
1495702806.91,6100,14.75,73696.5,6.91,0.95,1.17,0,*7F
1495702808.17,6101,14.75,73698.5,6.91,1.09,1.29,0,*47
1495702809.41,6102,14.81,73702.0,6.91,0.79,0.83,0,*43
1495702810.64,6103,14.81,73698.3,6.91,1.79,1.93,0,*43
1495702811.88,6104,14.81,73700.3,6.95,1.93,1.97,0,*40
1495702813.07,6105,14.81,73706.3,6.95,0.97,1.01,0,*7B
1495702814.3,6106,14.81,73706.8,6.95,0.51,0.41,0,*47
1495702815.53,6107,14.75,73702.3,6.95,0.75,0.83,0,*4E
1495702816.78,6108,14.81,73702.3,6.95,1.85,2.09,0,*4F
1495702818.01,6109,14.81,73698.8,6.99,1.01,1.29,0,*4F
1495702819.22,6110,14.81,73696.3,6.97,1.25,1.47,0,*47
1495702820.46,6111,14.81,73702.0,6.99,0.13,0.21,0,*4D
1495702821.68,6112,14.81,73704.5,6.99,1.41,1.63,0,*4F
1495702822.87,6113,14.81,73702.8,7.05,1.01,1.17,0,*4D
1495702824.07,6114,14.81,73702.5,7.05,1.75,2.05,0,*49
1495702825.29,6115,14.81,73700.5,7.05,1.89,2.17,0,*48
1495702826.48,6116,14.81,73702.5,7.05,1.79,1.89,0,*40
1495702827.72,6117,14.81,73698.8,7.07,0.71,0.83,0,*41
1495702828.92,6118,14.81,73702.8,7.09,1.55,1.83,0,*46
1495702830.16,6119,14.75,73698.3,7.11,1.47,1.71,0,*40
1495702831.41,6120,14.81,73698.0,7.11,1.59,1.85,0,*4E
1495702832.65,6121,14.81,73698.8,7.11,1.25,1.47,0,*4A
1495702833.86,6122,14.75,73696.3,7.11,0.97,1.17,0,*74
1495702835.08,6123,14.81,73700.0,7.11,0.91,0.97,0,*4A
1495702836.3,6124,14.81,73696.3,7.11,0.67,0.79,0,*44
1495702837.51,6125,14.81,73700.3,7.11,0.79,0.97,0,*4A
1495702838.73,6126,14.81,73700.5,7.13,0.79,0.91,0,*4D
1495702839.94,6127,14.81,73704.5,7.13,0.83,0.95,0,*4D
1495702841.19,6128,14.81,73700.8,7.11,1.13,1.29,0,*4E
1495702842.4,6129,14.81,73702.5,7.13,0.59,0.83,0,*43
1495702843.6,6130,14.81,73698.3,7.13,0.17,0.21,0,*49
1495702844.8,6131,14.81,73698.5,7.11,-0.29,-0.11,0,*44
1495702846.0,6132,14.81,73696.5,7.11,-0.11,0.05,0,*54
1495702847.24,6133,14.75,73698.0,7.11,0.55,0.75,0,*4F
1495702848.46,6134,14.81,73702.3,7.11,0.67,0.67,0,*4A
1495702849.64,6135,14.81,73700.5,7.09,-0.73,-0.73,0,*42
1495702850.8,6136,14.81,73698.5,7.09,-0.03,0.01,0,*6E
1495702852.01,6137,14.81,73692.0,7.09,0.41,0.51,0,*41
1495702853.24,6138,14.81,73696.8,7.07,0.13,0.29,0,*48
1495702854.47,6139,14.81,73700.5,7.07,0.29,0.29,0,*40
1495702855.67,6140,14.81,73704.5,7.07,-0.53,-0.65,0,*4B
1495702856.87,6141,14.81,73702.3,7.07,-0.49,-0.61,0,*45
1495702858.04,6142,14.81,73698.3,7.05,-0.53,-0.57,0,*4A
1495702859.21,6143,14.81,73696.0,7.05,-0.49,-0.57,0,*40
1495702860.46,6144,14.81,73698.0,7.03,-0.93,-1.05,0,*70
1495702861.64,6145,14.81,73698.3,7.05,-0.57,-0.81,0,*42
1495702862.88,6146,14.81,73690.0,7.03,-2.11,-3.03,0,*4E
1495702864.12,6147,14.81,73694.3,7.03,-3.39,-4.81,0,*49
1495702865.33,6148,14.81,73700.0,7.03,-3.95,-5.35,0,*4E
1495702866.52,6149,14.81,73696.0,7.05,-3.95,-4.29,0,*45
1495702867.74,6150,14.81,73692.5,7.05,-1.17,-1.39,0,*41
1495702868.96,6151,14.81,73694.8,7.09,-0.97,-0.85,0,*43
1495702870.17,6152,14.81,73692.8,7.13,-1.13,-0.69,0,*74
1495702871.39,6153,14.81,73696.5,7.17,-1.13,-0.97,0,*70
1495702872.6,6154,14.81,73698.5,7.17,-2.11,-2.27,0,*4F
1495702873.82,6155,14.81,73700.3,7.17,-2.63,-2.23,0,*4F
1495702875.0,6156,14.81,73702.8,7.25,-2.19,-1.79,0,*4C
1495702876.24,6157,14.81,73700.5,7.27,-2.15,-2.51,0,*4A
1495702877.47,6158,14.81,73702.5,7.31,-5.69,-4.41,0,*49
1495702878.71,6159,14.81,73698.8,7.31,-5.19,-3.03,0,*4E
1495702879.94,6160,14.81,73694.0,7.35,-3.07,-1.91,0,*40
1495702881.15,6161,14.81,73694.0,7.41,-1.95,-1.21,0,*40
1495702882.41,6162,14.81,73694.0,7.43,-2.47,-1.47,0,*4D
1495702883.62,6163,14.81,73694.5,7.53,-2.31,-0.77,0,*7E
1495702884.83,6164,14.81,73694.8,7.57,-3.19,-2.83,0,*4F
1495702886.04,6165,14.81,73690.8,7.61,-3.79,-2.91,0,*4E
1495702887.3,6166,14.81,73694.5,7.65,-3.59,-3.63,0,*47
1495702888.5,6167,14.81,73696.8,7.71,-5.65,-4.99,0,*48
1495702889.69,6168,14.81,73692.5,7.75,-6.39,-4.53,0,*4F
1495702890.87,6169,14.81,73690.5,7.81,-5.51,-3.35,0,*4F
1495702892.09,6170,14.81,73692.8,7.87,-6.09,-3.75,0,*4B
1495702893.31,6171,14.81,73694.0,7.93,-5.73,-2.95,0,*4E
1495702894.54,6172,14.81,73692.8,7.97,-5.23,-2.59,0,*4C
1495702895.75,6173,14.81,73694.8,8.01,-4.49,-2.07,0,*4B
1495702896.95,6174,14.81,73690.0,8.09,-4.29,-1.71,0,*40
1495702898.13,6175,14.81,73692.5,8.15,-4.05,-1.67,0,*45
1495702899.33,6176,14.81,73694.3,8.19,-3.15,-0.93,0,*76
1495702900.51,6177,14.81,73694.5,8.23,-2.19,-0.37,0,*7D
1495702901.72,6178,14.81,73692.0,8.29,-3.03,-1.63,0,*42
1495702902.94,6179,14.81,73692.3,8.33,-2.39,-1.01,0,*44
1495702904.14,6180,14.81,73692.5,8.39,-2.15,-0.97,0,*78
1495702905.34,6181,14.81,73694.5,8.41,-2.87,-1.55,0,*42
1495702906.57,6182,14.81,73694.5,8.41,-1.29,0.25,0,*5D
1495702907.78,6183,14.81,73694.8,8.51,0.09,1.43,0,*42
1495702908.99,6184,14.81,73694.8,8.53,0.75,1.85,0,*76
1495702910.23,6185,14.81,73688.5,8.55,-0.93,0.13,0,*6A
1495702911.43,6186,14.81,73692.3,8.57,-0.57,0.55,0,*61
1495702912.65,6187,14.81,73694.3,8.59,-0.45,0.41,0,*68
1495702913.83,6188,14.81,73692.0,8.65,0.13,0.97,0,*4D
1495702915.05,6189,14.81,73690.5,8.67,0.97,1.71,0,*7B
1495702916.3,6190,14.81,73688.0,8.67,1.51,2.13,0,*4F
1495702917.53,6191,14.81,73692.5,8.69,1.29,1.71,0,*48
1495702918.75,6192,14.81,73694.0,8.73,1.21,1.59,0,*42
1495702919.96,6193,14.81,73694.5,8.71,0.51,1.01,0,*7A
1495702921.14,6194,14.81,73694.0,8.71,0.43,1.01,0,*7E
1495702922.36,6195,14.81,73694.5,8.73,1.21,1.71,0,*4F
1495702923.56,6196,14.81,73688.3,8.73,1.05,1.59,0,*40
1495702924.76,6197,14.81,73690.5,8.73,1.37,1.83,0,*47
1495702925.97,6198,14.81,73694.5,8.73,1.43,1.89,0,*41
1495702927.21,6199,14.81,73694.5,8.71,0.51,1.17,0,*77
1495702928.46,6200,14.81,73688.5,8.71,1.13,1.63,0,*40
1495702929.7,6201,14.81,73694.0,8.71,0.33,0.91,0,*4E
1495702930.91,6202,14.81,73690.0,8.73,0.75,1.37,0,*70
1495702932.15,6203,14.81,73688.3,8.71,0.55,1.17,0,*73
1495702933.38,6204,14.81,73690.8,8.71,0.21,0.79,0,*4E
1495702934.62,6205,14.81,73688.5,8.71,-0.27,0.41,0,*6F
1495702935.86,6206,14.81,73688.5,8.67,0.91,1.59,0,*73
1495702937.09,6207,14.81,73692.0,8.69,1.59,2.13,0,*44
1495702938.26,6208,14.81,73688.8,8.69,1.83,2.35,0,*48
1495702939.51,6209,14.81,73694.5,8.71,2.01,2.47,0,*4C
1495702940.72,6210,14.81,73692.8,8.73,1.67,1.93,0,*4F
1495702941.95,6211,14.81,73692.5,8.73,1.29,1.67,0,*4F
1495702943.16,6212,14.81,73686.0,8.73,1.67,1.93,0,*4D
1495702944.39,6213,14.81,73692.0,8.73,1.33,1.71,0,*41
1495702945.55,6214,14.81,73690.3,8.73,1.83,2.27,0,*4D
1495702946.75,6215,14.81,73690.3,8.75,2.31,2.65,0,*46
1495702948.01,6216,14.81,73690.5,8.77,1.59,1.85,0,*47
1495702949.23,6217,14.81,73692.0,8.77,1.75,2.09,0,*4F
1495702950.45,6218,14.81,73696.0,8.75,2.09,2.35,0,*45
1495702951.7,6219,14.81,73698.3,8.77,1.51,1.51,0,*49
1495702952.92,6220,14.81,73700.0,8.75,1.41,1.51,0,*40
1495702954.17,6221,14.81,73698.5,8.77,1.71,1.85,0,*49
1495702955.43,6222,14.81,73696.5,8.77,1.37,1.59,0,*49
1495702956.66,6223,14.81,73694.8,8.75,0.41,0.75,0,*45
1495702957.89,6224,14.81,73692.0,8.75,0.59,0.79,0,*47
1495702959.13,6225,14.81,73692.3,8.75,0.51,0.91,0,*48
1495702960.33,6226,14.81,73698.0,8.73,1.79,2.09,0,*45
1495702961.56,6227,14.81,73702.5,8.73,2.17,2.43,0,*41
1495702962.76,6228,14.81,73700.8,8.73,1.55,1.79,0,*41
1495702963.95,6229,14.81,73700.5,8.73,1.05,1.33,0,*4B
1495702965.17,6230,14.81,73698.0,8.73,1.71,1.89,0,*41
1495702966.39,6231,14.81,73698.0,8.73,1.33,1.55,0,*47
1495702967.62,6232,14.81,73696.3,8.73,1.93,2.17,0,*4B
1495702968.81,6233,14.81,73696.8,8.73,1.79,1.89,0,*4A
1495702970.03,6234,14.81,73696.0,8.71,2.35,2.51,0,*42
1495702971.24,6235,14.81,73700.3,8.73,1.59,1.43,0,*48
1495702972.46,6236,14.81,73702.8,8.73,1.71,1.89,0,*47
1495702973.65,6237,14.81,73698.5,8.73,1.79,1.89,0,*4E
1495702974.89,6238,14.81,73698.8,8.71,1.25,1.55,0,*4B
1495702976.08,6239,14.81,73700.0,8.73,2.05,2.31,0,*48
1495702977.3,6240,14.81,73702.0,8.71,2.35,2.59,0,*49
1495702978.49,6241,14.81,73702.5,8.73,1.83,1.89,0,*4A
1495702979.71,6242,14.81,73702.0,8.75,1.41,1.71,0,*46
1495702980.93,6243,14.81,73704.8,8.75,1.51,1.75,0,*42
1495702982.18,6244,14.81,73700.5,8.71,1.13,1.29,0,*4E
1495702983.39,6245,14.81,73696.0,8.73,0.21,0.37,0,*43
1495702984.59,6246,14.81,73698.3,8.71,-0.29,-0.19,0,*46
1495702985.82,6247,14.81,73698.3,8.71,0.67,1.25,0,*73
1495702987.04,6248,14.81,73698.3,8.71,1.79,1.97,0,*4B
1495702988.26,6249,14.81,73702.3,8.71,2.01,2.27,0,*4E
1495702989.45,6250,14.81,73696.3,8.73,2.31,2.55,0,*42
1495702990.69,6251,14.81,73696.0,8.71,2.05,2.47,0,*45
1495702991.89,6252,14.81,73702.8,8.73,2.31,2.55,0,*40
1495702993.15,6253,14.81,73698.8,8.77,2.59,2.89,0,*4A
1495702994.37,6254,14.81,73700.0,8.79,2.01,2.13,0,*4D
1495702995.59,6255,14.81,73692.3,8.79,1.89,2.25,0,*4A
1495702996.82,6256,14.81,73698.3,8.81,2.25,2.61,0,*4B
1495702998.03,6257,14.81,73696.3,8.79,2.13,2.61,0,*48
1495702999.25,6258,14.81,73692.8,8.81,2.59,2.91,0,*41
1495703000.5,6259,14.81,73692.5,8.85,2.73,3.03,0,*46
1495703001.75,6260,14.81,73696.8,8.85,2.89,3.33,0,*4A
1495703002.94,6261,14.81,73694.8,8.89,2.99,3.29,0,*4D
1495703004.14,6262,14.81,73702.3,8.93,2.95,3.29,0,*49
1495703005.38,6263,14.81,73696.0,8.93,2.85,3.19,0,*4A
1495703006.63,6264,14.81,73698.0,8.93,1.97,2.13,0,*46
1495703007.84,6265,14.81,73702.3,8.93,2.73,2.91,0,*44
1495703009.04,6266,14.81,73702.8,8.95,2.99,3.33,0,*4C
1495703010.25,6267,14.81,73702.0,8.95,2.55,2.73,0,*48
1495703011.47,6268,14.81,73702.5,8.97,2.21,2.35,0,*44
1495703012.68,6269,14.81,73700.5,8.97,2.21,2.35,0,*45
1495703013.9,6270,14.81,73696.3,8.99,2.77,3.03,0,*44
1495703015.12,6271,14.81,73698.3,8.99,2.81,3.03,0,*4C
1495703016.37,6272,14.81,73698.0,9.01,2.73,3.15,0,*45
1495703017.61,6273,14.81,73698.3,9.01,3.41,3.67,0,*41
1495703018.82,6274,14.81,73702.3,9.03,2.51,2.61,0,*43
1495703020.03,6275,14.81,73696.0,9.03,1.51,1.63,0,*40
1495703021.22,6276,14.81,73698.8,9.03,1.05,1.29,0,*4C
1495703022.45,6277,14.81,73696.8,9.01,1.79,2.13,0,*4E
1495703023.69,6278,14.81,73694.0,9.05,2.89,3.11,0,*4A
1495703024.92,6279,14.81,73696.0,9.09,3.11,3.41,0,*42
1495703026.15,6280,14.81,73702.0,9.09,3.37,3.71,0,*43
1495703027.37,6281,14.81,73698.5,9.09,2.43,2.47,0,*44
1495703028.6,6282,14.81,73696.3,9.11,1.83,2.05,0,*47
1495703029.83,6283,14.81,73696.3,9.11,2.99,3.15,0,*4E
1495703031.06,6284,14.81,73696.5,9.11,2.91,3.11,0,*45
1495703032.29,6285,14.81,73698.3,9.13,3.15,3.45,0,*4A
1495703033.46,6286,14.81,73698.8,9.13,3.29,3.55,0,*47
1495703034.67,6287,14.81,73698.5,9.13,2.43,2.61,0,*4D
1495703035.85,6288,14.81,73696.0,9.17,2.65,2.99,0,*45
1495703037.07,6289,14.81,73698.8,9.17,3.19,3.37,0,*4B
1495703038.29,6290,14.81,73700.0,9.17,2.89,3.07,0,*48
1495703039.52,6291,14.81,73700.5,9.19,3.11,3.25,0,*47
1495703040.75,6292,14.81,73702.8,9.19,2.31,2.43,0,*46
1495703041.98,6293,14.81,73698.3,9.21,1.85,1.85,0,*49
1495703043.23,6294,14.81,73696.3,9.19,1.37,1.59,0,*4D
1495703044.42,6295,14.81,73696.3,9.21,1.41,1.51,0,*4E
1495703045.65,6296,14.81,73698.3,9.19,2.31,2.43,0,*42
1495703046.87,6297,14.81,73696.0,9.21,2.25,2.47,0,*49
1495703048.1,6298,14.81,73696.0,9.21,2.43,2.69,0,*4A
1495703049.29,6299,14.81,73700.8,9.21,2.73,2.95,0,*4B
1495703050.52,6300,14.81,73696.8,9.21,2.01,2.13,0,*41
1495703051.74,6301,14.81,73702.5,9.21,1.97,2.21,0,*4D
1495703052.99,6302,14.81,73702.0,9.23,1.17,1.17,0,*42
1495703054.24,6303,14.81,73698.0,9.23,1.89,2.09,0,*48
1495703055.46,6304,14.81,73696.3,9.21,1.89,2.09,0,*4D
1495703056.69,6305,14.81,73702.5,9.21,1.25,1.37,0,*44
1495703057.89,6306,14.81,73698.3,9.21,1.01,1.13,0,*47
1495703059.12,6307,14.81,73698.5,9.19,0.25,0.29,0,*42
1495703060.29,6308,14.81,73700.3,9.19,0.01,0.01,0,*41
1495703061.51,6309,14.81,73700.0,9.17,0.37,0.59,0,*46
1495703062.71,6310,14.81,73696.3,9.15,0.43,0.55,0,*43
1495703063.92,6311,14.81,73700.8,9.17,0.37,0.47,0,*40
1495703065.15,6312,14.81,73702.0,9.15,0.33,0.37,0,*42
1495703066.35,6313,14.81,73698.8,9.13,0.97,1.13,0,*7C
1495703067.58,6314,14.81,73696.5,9.11,0.97,1.21,0,*78
1495703068.8,6315,14.81,73696.8,9.11,1.01,1.21,0,*47
1495703070.07,6316,14.81,73698.3,9.11,1.13,1.33,0,*44
1495703071.31,6317,14.81,73696.5,9.11,0.83,0.83,0,*47
1495703072.53,6318,14.81,73700.8,9.11,1.01,1.13,0,*4B
1495703073.75,6319,14.81,73698.5,9.09,1.43,1.47,0,*44
1495703074.96,6320,14.81,73702.8,9.09,0.63,0.63,0,*4A
1495703076.17,6321,14.81,73696.8,9.09,0.59,0.75,0,*45
1495703077.41,6322,14.81,73702.0,9.05,0.83,0.83,0,*44
1495703078.64,6323,14.81,73696.5,9.05,0.83,0.79,0,*40
1495703079.86,6324,14.81,73696.8,9.03,0.91,0.91,0,*44
1495703081.11,6325,14.81,73700.5,9.01,1.13,1.25,0,*42
1495703082.28,6326,14.81,73696.8,9.03,0.17,0.01,0,*71
1495703083.51,6327,14.81,73698.0,9.01,-0.23,-0.19,0,*4C
1495703084.74,6328,14.81,73696.5,8.99,1.13,1.37,0,*4C
1495703085.97,6329,14.81,73696.0,8.97,1.43,1.43,0,*45
1495703087.16,6330,14.81,73702.3,8.99,0.91,1.01,0,*7B
1495703088.37,6331,14.81,73702.8,8.99,0.71,0.75,0,*46
1495703089.6,6332,14.81,73702.8,8.97,0.75,0.83,0,*46
1495703090.78,6333,14.81,73698.5,8.95,-0.33,-0.37,0,*48
1495703092.0,6334,14.81,73700.3,8.93,0.75,0.79,0,*41
1495703093.2,6335,14.81,73696.3,8.93,-0.03,-0.11,0,*7F
1495703094.41,6336,14.81,73698.0,8.91,0.29,0.51,0,*42
1495703095.61,6337,14.81,73696.8,8.91,0.97,1.13,0,*71
1495703096.85,6338,14.81,73698.8,8.89,1.43,1.51,0,*49
1495703098.07,6339,14.81,73698.0,8.89,0.13,0.17,0,*4F
1495703099.3,6340,14.81,73694.5,8.89,0.41,0.41,0,*45
1495703100.53,6341,14.81,73698.0,8.89,0.25,0.37,0,*47
1495703101.74,6342,14.81,73696.0,8.87,0.59,0.63,0,*40
1495703102.96,6343,14.81,73698.5,8.87,1.21,1.33,0,*4B
1495703104.19,6344,14.81,73700.3,8.87,1.13,1.09,0,*44
1495703105.45,6345,14.81,73702.5,8.85,1.21,1.29,0,*44
1495703106.7,6346,14.81,73700.0,8.85,1.29,1.47,0,*47
1495703107.89,6347,14.81,73702.8,8.85,-0.53,-0.65,0,*4B
1495703109.09,6348,14.81,73700.5,8.79,-0.33,-0.23,0,*43
1495703110.3,6349,14.81,73696.5,8.79,0.63,0.67,0,*47
1495703111.5,6350,14.81,73700.0,8.79,0.33,0.33,0,*4B
1495703112.7,6351,14.81,73698.5,8.79,-0.23,-0.29,0,*40
1495703113.89,6352,14.81,73696.0,8.75,-0.61,-0.57,0,*40
1495703115.12,6353,14.81,73698.5,8.75,0.25,0.37,0,*47
1495703116.3,6354,14.81,73696.3,8.73,0.43,0.51,0,*46
1495703117.51,6355,14.81,73698.5,8.73,0.59,0.63,0,*4D
1495703118.75,6356,14.81,73696.0,8.71,0.51,0.55,0,*41
1495703119.94,6357,14.88,73702.8,8.71,-0.07,-0.03,0,*40
1495703121.17,6358,14.81,73698.3,8.71,0.55,0.67,0,*4A
1495703122.4,6359,14.81,73702.3,8.71,0.59,0.59,0,*4A
1495703123.61,6360,14.81,73698.3,8.69,0.37,0.41,0,*48
1495703124.81,6361,14.81,73698.0,8.67,0.97,1.01,0,*78
1495703126.04,6362,14.81,73700.3,8.67,0.17,0.17,0,*45
1495703127.27,6363,14.81,73698.8,8.67,0.63,0.75,0,*43
1495703128.48,6364,14.81,73700.5,8.63,0.43,0.47,0,*43
1495703129.7,6365,14.81,73702.5,8.65,0.71,0.63,0,*43
1495703130.94,6366,14.81,73700.5,8.63,0.51,0.59,0,*4D
1495703132.12,6367,14.88,73706.3,8.63,0.01,0.09,0,*4C
1495703133.3,6368,14.81,73700.3,8.63,0.01,0.01,0,*4B
1495703134.54,6369,14.81,73702.0,8.63,-0.27,-0.23,0,*4E
1495703135.72,6370,14.81,73702.5,8.57,-0.45,-0.33,0,*44
1495703136.89,6371,14.81,73696.8,8.57,-0.33,-0.29,0,*4F
1495703138.12,6372,14.81,73700.8,8.55,0.13,0.37,0,*43
1495703139.34,6373,14.81,73698.0,8.53,0.47,0.63,0,*44
1495703140.52,6374,14.81,73696.0,8.53,0.01,0.17,0,*72
1495703141.73,6375,14.81,73696.5,8.53,0.21,0.25,0,*40
1495703142.93,6376,14.81,73702.0,8.55,-0.41,-0.29,0,*4F
1495703144.14,6377,14.88,73700.8,8.53,-0.27,-0.15,0,*47
1495703145.34,6378,14.81,73698.0,8.51,-0.45,-0.33,0,*4A
1495703146.55,6379,14.81,73696.5,8.49,-1.67,-1.87,0,*4D
1495703147.79,6380,14.81,73698.0,8.45,-1.91,-1.83,0,*4A
1495703148.98,6381,14.81,73696.8,8.45,-0.23,0.05,0,*51
1495703150.21,6382,14.81,73696.5,8.41,0.17,0.25,0,*4E
1495703151.45,6383,14.81,73702.0,8.41,0.55,0.71,0,*48
1495703152.69,6384,14.88,73702.5,8.41,0.21,0.21,0,*49
1495703153.86,6385,14.81,73698.3,8.39,-0.49,-0.49,0,*47
1495703155.04,6386,14.81,73698.8,8.39,-1.17,-1.25,0,*45
1495703156.21,6387,14.81,73700.0,8.35,-0.19,-0.07,0,*76
1495703157.4,6388,14.81,73698.8,8.35,0.05,0.21,0,*70
1495703158.58,6389,14.81,73700.5,8.35,0.41,0.43,0,*45
1495703159.76,6390,14.81,73700.3,8.35,0.05,0.13,0,*78
1495703160.96,6391,14.81,73696.0,8.35,-0.19,-0.23,0,*47
1495703162.2,6392,14.81,73698.8,8.33,-0.85,-0.89,0,*47
1495703163.46,6393,14.81,73694.5,8.33,-1.09,-1.01,0,*42
1495703164.65,6394,14.81,73694.8,8.31,-0.27,-0.11,0,*4A
1495703165.86,6395,14.81,73696.5,8.29,-0.29,-0.15,0,*48
1495703167.08,6396,14.81,73692.8,8.29,0.13,0.33,0,*46
1495703168.32,6397,14.81,73698.0,8.29,0.71,0.87,0,*4C
1495703169.55,6398,14.81,73694.5,8.31,1.09,1.21,0,*49
1495703170.75,6399,14.81,73692.3,8.31,0.63,0.71,0,*41
1495703171.95,6400,14.81,73698.5,8.29,-0.77,-0.73,0,*48
1495703173.14,6401,14.88,73696.8,8.29,-0.61,-0.53,0,*4C
1495703174.37,6402,14.81,73698.3,8.29,-0.27,-0.29,0,*40
1495703175.57,6403,14.81,73696.3,8.29,-1.51,-1.63,0,*4E
1495703176.74,6404,14.81,73694.0,8.27,-0.73,-0.61,0,*45
1495703177.92,6405,14.88,73698.8,8.27,-0.53,-0.41,0,*44
1495703179.12,6406,14.88,73700.8,8.27,0.21,0.25,0,*40
1495703180.31,6407,14.81,73696.5,8.25,-0.33,-0.29,0,*4C
1495703181.51,6408,14.88,73694.5,8.25,-0.45,-0.41,0,*4C
1495703182.72,6409,14.81,73686.8,8.25,0.01,0.21,0,*7B
1495703183.92,6410,14.81,73692.5,8.23,0.41,0.47,0,*41
1495703185.11,6411,14.81,73690.5,8.21,-0.15,0.05,0,*58
1495703186.32,6412,14.81,73692.0,8.23,0.29,0.47,0,*4D
1495703187.52,6413,14.81,73694.5,8.23,0.59,0.71,0,*4E
1495703188.7,6414,14.88,73692.0,8.25,0.01,0.05,0,*41
1495703189.9,6415,14.81,73692.3,8.21,-0.11,-0.03,0,*73
1495703191.13,6416,14.81,73696.3,8.21,0.29,0.29,0,*43
1495703192.33,6417,14.81,73694.3,8.21,-0.37,-0.33,0,*46
1495703193.56,6418,14.81,73694.3,8.21,0.75,0.87,0,*40
1495703194.77,6419,14.81,73692.0,8.21,0.87,0.97,0,*4D
1495703195.92,6420,14.81,73694.3,8.23,0.97,0.97,0,*44
1495703197.16,6421,14.88,73702.5,8.21,0.51,0.47,0,*40
1495703198.39,6422,14.88,73698.8,8.21,0.63,0.75,0,*43
1495703199.62,6423,14.88,73696.8,8.23,1.33,1.37,0,*43
1495703200.82,6424,14.88,73698.8,8.23,0.75,0.79,0,*4C
1495703202.02,6425,14.88,73698.0,8.23,-0.27,-0.37,0,*40
1495703203.22,6426,14.81,73694.3,8.23,0.51,0.59,0,*4A
1495703204.43,6427,14.81,73694.0,8.23,0.75,0.87,0,*4E
1495703205.67,6428,14.81,73694.8,8.21,0.91,0.87,0,*49
1495703206.85,6429,14.81,73692.8,8.23,0.05,0.17,0,*7E
1495703208.03,6430,14.88,73698.8,8.23,0.79,0.97,0,*45
1495703209.22,6431,14.88,73698.0,8.23,0.97,1.13,0,*79
1495703210.44,6432,14.88,73694.8,8.23,0.91,0.91,0,*47
1495703211.6,6433,14.81,73698.3,8.23,-0.15,-0.03,0,*71
1495703212.8,6434,14.81,73694.3,8.23,0.91,1.01,0,*79
1495703213.99,6435,14.81,73694.0,8.23,1.51,1.75,0,*46
1495703215.23,6436,14.88,73692.8,8.25,1.97,2.09,0,*41
1495703216.46,6437,14.88,73692.5,8.27,1.09,1.17,0,*49
1495703217.71,6438,14.88,73694.5,8.29,1.89,2.13,0,*47
1495703218.92,6439,14.88,73696.3,8.29,1.59,1.83,0,*41
1495703220.17,6440,14.88,73698.0,8.29,0.87,0.87,0,*48
1495703221.42,6441,14.88,73698.8,8.29,1.21,1.43,0,*4D
1495703222.6,6442,14.88,73698.8,8.31,1.83,1.97,0,*46
1495703223.81,6443,14.81,73694.8,8.31,0.71,0.75,0,*46
1495703225.04,6444,14.88,73696.0,8.33,0.47,0.63,0,*41
1495703226.28,6445,14.88,73696.3,8.33,0.29,0.47,0,*4E
1495703227.49,6446,14.81,73694.5,8.33,1.75,1.97,0,*49
1495703228.68,6447,14.81,73698.5,8.35,2.21,2.35,0,*47
1495703229.92,6448,14.81,73696.0,8.33,0.51,0.59,0,*43
1495703231.14,6449,14.88,73698.0,8.39,1.29,1.63,0,*4E
1495703232.36,6450,14.88,73696.3,8.41,1.41,1.55,0,*42
1495703233.61,6451,14.88,73696.3,8.41,1.89,2.13,0,*46
1495703234.82,6452,14.88,73696.0,8.41,0.95,0.97,0,*47
1495703236.06,6453,14.81,73692.8,8.41,0.55,0.83,0,*4F
1495703237.27,6454,14.88,73700.3,8.45,1.47,1.59,0,*48
1495703238.5,6455,14.81,73696.5,8.45,1.97,2.25,0,*4C
1495703239.75,6456,14.88,73698.3,8.47,1.71,1.51,0,*45
1495703240.93,6457,14.81,73696.5,8.45,0.97,1.05,0,*7E
1495703242.13,6458,14.88,73696.0,8.45,1.41,1.51,0,*4A
1495703243.35,6459,14.88,73694.3,8.47,1.63,1.75,0,*4F
1495703244.59,6460,14.88,73692.8,8.47,1.47,1.47,0,*42
1495703245.84,6461,14.88,73696.5,8.47,1.25,1.29,0,*4F
1495703247.07,6462,14.88,73698.8,8.49,2.01,2.05,0,*4A
1495703248.29,6463,14.88,73702.8,8.49,1.67,1.67,0,*4F
1495703249.54,6464,14.88,73700.3,8.51,1.21,1.43,0,*45
1495703250.78,6465,14.88,73696.5,8.51,1.71,1.93,0,*4C
1495703252.0,6466,14.88,73696.3,8.51,1.79,1.97,0,*43
1495703253.22,6467,14.88,73696.3,8.51,1.83,1.93,0,*43
1495703254.45,6468,14.81,73692.8,8.53,1.71,1.85,0,*44
1495703255.65,6469,14.88,73702.0,8.53,1.83,2.01,0,*47
1495703256.87,6470,14.88,73702.8,8.55,1.75,2.01,0,*40
1495703258.09,6471,14.88,73698.0,8.55,1.41,1.51,0,*40
1495703259.3,6472,14.88,73696.5,8.57,1.63,1.59,0,*49
1495703260.49,6473,14.88,73698.5,8.57,0.29,0.43,0,*4D
1495703261.69,6474,14.88,73694.0,8.57,1.01,1.09,0,*4E
1495703262.92,6475,14.88,73700.0,8.57,1.09,1.29,0,*45
1495703264.14,6476,14.88,73696.8,8.57,1.59,1.63,0,*4D
1495703265.37,6477,14.88,73700.0,8.57,1.29,1.51,0,*4A
1495703266.59,6478,14.88,73700.3,8.57,1.71,1.85,0,*41
1495703267.84,6479,14.88,73698.3,8.59,1.43,1.63,0,*47
1495703269.08,6480,14.81,73698.0,8.59,1.63,1.67,0,*47
1495703270.3,6481,14.88,73698.3,8.59,1.75,1.93,0,*4A
1495703271.53,6482,14.88,73698.5,8.63,1.67,1.83,0,*42
1495703272.73,6483,14.88,73702.8,8.63,2.31,2.61,0,*4C
1495703273.97,6484,14.88,73702.3,8.67,2.43,2.65,0,*4E
1495703275.19,6485,14.88,73702.3,8.65,1.47,1.55,0,*4A
1495703276.41,6486,14.88,73702.3,8.67,0.87,1.01,0,*77
1495703277.66,6487,14.88,73700.5,8.67,1.85,2.13,0,*45
1495703278.91,6488,14.88,73702.8,8.67,2.09,2.21,0,*4C
1495703280.11,6489,14.88,73702.0,8.69,1.83,2.01,0,*40
1495703281.31,6490,14.88,73700.8,8.69,1.75,1.93,0,*49
1495703282.53,6491,14.88,73706.0,8.71,1.63,1.75,0,*4E
1495703283.77,6492,14.88,73704.0,8.71,0.51,0.55,0,*4E
1495703284.98,6493,14.88,73702.3,8.69,0.29,0.29,0,*42
1495703286.21,6494,14.88,73702.3,8.67,0.37,0.51,0,*4B
1495703287.47,6495,14.88,73702.0,8.67,1.09,1.21,0,*40
1495703288.71,6496,14.81,73698.3,8.67,0.47,0.51,0,*4E
1495703289.95,6497,14.88,73698.5,8.67,0.47,0.51,0,*4F
1495703291.13,6498,14.88,73698.8,8.67,0.01,0.05,0,*43
1495703292.34,6499,14.88,73702.0,8.63,0.25,0.43,0,*42
1495703293.59,6500,14.88,73700.8,8.63,0.83,1.09,0,*70
1495703294.8,6501,14.88,73706.0,8.65,0.71,0.95,0,*4E
1495703296.01,6502,14.88,73702.5,8.63,0.37,0.43,0,*42
1495703297.22,6503,14.88,73700.3,8.63,0.37,0.43,0,*43
1495703298.42,6504,14.88,73700.3,8.63,-0.53,-0.61,0,*46
1495703299.61,6505,14.88,73698.3,8.57,-1.21,-1.17,0,*44
1495703300.81,6506,14.88,73700.5,8.57,0.13,0.25,0,*47
1495703302.0,6507,14.88,73702.3,8.57,0.79,0.97,0,*43
1495703303.21,6508,14.88,73704.3,8.57,0.75,0.79,0,*40
1495703304.41,6509,14.88,73700.3,8.57,1.01,1.13,0,*4E
1495703305.63,6510,14.88,73704.0,8.55,0.91,1.01,0,*7F
1495703306.83,6511,14.88,73702.8,8.55,0.43,0.55,0,*41
1495703308.06,6512,14.88,73700.5,8.55,0.41,0.41,0,*45
1495703309.32,6513,14.88,73700.8,8.55,1.13,1.25,0,*41
1495703310.53,6514,14.88,73702.5,8.53,0.13,0.21,0,*44
1495703311.71,6515,14.88,73698.8,8.53,0.01,0.21,0,*76
1495703312.94,6516,14.88,73696.5,8.53,0.95,1.09,0,*73
1495703314.14,6517,14.88,73698.8,8.53,0.97,1.09,0,*70
1495703315.29,6518,14.88,73698.5,8.53,0.01,0.09,0,*41
1495703316.5,6519,14.88,73698.3,8.53,-0.27,-0.11,0,*4D
1495703317.72,6520,14.88,73702.3,8.51,0.97,1.09,0,*76
1495703318.91,6521,14.81,73698.5,8.51,0.97,0.97,0,*41
1495703320.11,6522,14.88,73696.0,8.49,1.05,1.13,0,*4C
1495703321.29,6523,14.88,73692.8,8.49,-0.49,-0.49,0,*4A
1495703322.49,6524,14.88,73692.3,8.47,-0.29,-0.11,0,*48
1495703323.73,6525,14.88,73698.3,8.47,0.13,0.29,0,*4B
1495703324.96,6526,14.88,73702.5,8.47,0.55,0.67,0,*40
1495703326.15,6527,14.88,73700.5,8.45,0.43,0.55,0,*45
1495703327.38,6528,14.88,73696.3,8.47,0.33,0.41,0,*4A
1495703328.57,6529,14.88,73698.3,8.45,0.05,0.17,0,*7F
1495703329.77,6530,14.88,73696.8,8.45,-0.29,-0.23,0,*4E
1495703330.97,6531,14.88,73698.8,8.39,0.17,0.21,0,*4B
1495703332.13,6532,14.88,73698.8,8.39,-0.61,-0.53,0,*4C
1495703333.3,6533,14.88,73700.3,8.39,-0.29,-0.19,0,*4F
1495703334.51,6534,14.88,73696.0,8.35,0.21,0.41,0,*41
1495703335.71,6535,14.88,73702.0,8.35,0.21,0.29,0,*4E